Torna al catalogo

EKRAN 16

AttivoComunicazioniGEO
NORAD 18328·PAYLOAD·🇷🇺 Russia

Lanciato Sep 3, 1987 da Baikonur Cosmodrome

Loading…

TLE

AggiornatoSource: Space-Track

Epoca: Sep 10, 2026, 15:14 UTC

1 18328U 87073A   26253.63516984 -.00000105  00000-0  00000+0 0  9993
2 18328  12.1377 327.3680 0005830 280.0897  72.5180  0.96484096137835

Traccia EKRAN 16 in tempo reale con AllMySat

Download on the App Store